User: anonymous   Login
Location: Caltech
(34.1382°N, 118.1253°W)
Time: 21:27:43
(UTC-07:00)
Language:

Cosmos 1125 Rocket - Orbit

View from above orbital plane
View from above orbital plane
View from above satellite
View from above satellite

Ground track
Ground track

The orbit data is extracted from the following two-line orbital elements,

1 11511U 79078B   16237.82056565  .00000035  00000-0  20737-4 0  9997
2 11511  74.0375 140.0062 0014606  97.2286 263.0528 14.36725368936055
Epoch (UTC): 24 August 2016 19:41:36
Eccentricity: 0.0014606
inclination: 74.0375°
perigee height: 759 km
apogee height: 780 km
right ascension of ascending node: 140.0062°
argument of perigee: 97.2286°
revolutions per day: 14.36725368
mean anomaly at epoch: 263.0528°
orbit number at epoch: 93605

The dashed part of the orbit path shows where the satellite is in the earth's shadow,  

DLR